Naples, FL

2:25 PM EST on December 07, 2016 (GMT -0500)
Marco Island

Weather History for KMKY - May, 2014

Change the Weather History Date:

Monday, May 26, 2014

  Actual Average (KAPF) Record (KAPF)
Temperature  
Mean Temperature 81 °F 80 °F  
Max Temperature 91 °F 89 °F 93 °F (1989)
Min Temperature 71 °F 71 °F 58 °F (1979)
Degree Days  
Heating Degree Days 0 0  
Month to date heating degree days 0  
Since 1 July heating degree days 260  
Cooling Degree Days 16 15  
Month to date cooling degree days 333  
Year to date cooling degree days 953  
Growing Degree Days 31 (Base 50)    
Moisture  
Dew Point 70 °F    
Average Humidity 76    
Maximum Humidity 94    
Minimum Humidity 46    
Precipitation  
Precipitation 0.29 in 0.14 in 2.00 in (1961)
Month to date precipitation 2.41  
Year to date precipitation 11.10  
Snow  
Snow 0.00 in - - ()
Month to date snowfall  
Since 1 July snowfall  
Snow Depth -    
Sea Level Pressure  
Sea Level Pressure 30.12 in    
Wind  
Wind Speed 5 mph (East)    
Max Wind Speed 16 mph    
Max Gust Speed 31 mph    
Visibility 9 miles    
Events Thunderstorm    
T = Trace of Precipitation, MM = Missing Value Source: NWS Daily Summary

Daily Weather History Graph

Daily Weather History Graph

Search for Another Location

Airport or City:

Trip Planner

Search our weather history database for the weather conditions in past years. The results will help you decide how hot, cold, wet, or windy it might be!

Date:

Astronomy

May. 26, 2014 Rise Set
Actual Time 6:36 AM EDT 8:11 PM EDT
Civil Twilight 6:10 AM EDT 8:37 PM EDT
Nautical Twilight 5:40 AM EDT 9:07 PM EDT
Astronomical Twilight 5:08 AM EDT 9:39 PM EDT
Moon 5:03 AM EDT (5/26) 6:24 PM EDT (5/26)
Length of Visible Light 14h 26m
Length of Day
13h 35m
Waning Crescent, 5% of the Moon is Illuminated
May 26
Waning Crescent
May 28
New
Jun 5
First Quarter
Jun 13
Full
Jun 19
Last Quarter

Hourly Weather History & Observations

Time (EDT) Temp. Heat Index Dew Point Humidity Pressure Visibility Wind Dir Wind Speed Gust Speed Precip Events Conditions
12:15 AM 77.0 °F - 73.4 °F 89% 30.11 in 10.0 mi ENE 4.6 mph - N/A   Partly Cloudy
12:35 AM 77.0 °F - 73.4 °F 89% 30.11 in 10.0 mi ENE 5.8 mph - N/A   Mostly Cloudy
12:55 AM 75.2 °F - 71.6 °F 89% 30.10 in 10.0 mi East 6.9 mph - N/A   Scattered Clouds
1:15 AM 75.2 °F - 71.6 °F 89% 30.10 in 10.0 mi East 6.9 mph - N/A   Clear
1:35 AM 75.2 °F - 71.6 °F 89% 30.10 in 10.0 mi ENE 5.8 mph - N/A   Clear
1:55 AM 75.2 °F - 71.6 °F 89% 30.10 in 10.0 mi East 4.6 mph - N/A   Clear
2:15 AM 73.4 °F - 69.8 °F 88% 30.10 in 10.0 mi East 5.8 mph - N/A   Clear
2:35 AM 73.4 °F - 69.8 °F 88% 30.10 in 10.0 mi ENE 5.8 mph - N/A   Clear
2:55 AM 73.4 °F - 69.8 °F 88% 30.10 in 10.0 mi East 3.5 mph - N/A   Clear
3:15 AM 73.4 °F - 69.8 °F 88% 30.10 in 10.0 mi East 4.6 mph - N/A   Clear
3:35 AM 71.6 °F - 69.8 °F 94% 30.10 in 10.0 mi East 3.5 mph - N/A   Clear
3:55 AM 71.6 °F - 69.8 °F 94% 30.09 in 10.0 mi East 4.6 mph - N/A   Clear
4:15 AM 71.6 °F - 68.0 °F 88% 30.09 in 10.0 mi East 4.6 mph - N/A   Clear
4:35 AM 71.6 °F - 68.0 °F 88% 30.09 in 10.0 mi East 4.6 mph - N/A   Clear
4:55 AM 71.6 °F - 68.0 °F 88% 30.09 in 10.0 mi East 5.8 mph - N/A   Clear
5:15 AM 71.6 °F - 68.0 °F 88% 30.10 in 10.0 mi East 3.5 mph - N/A   Clear
5:35 AM 71.6 °F - 68.0 °F 88% 30.10 in 9.0 mi East 3.5 mph - N/A   Clear
5:55 AM 71.6 °F - 68.0 °F 88% 30.11 in 8.0 mi ENE 3.5 mph - N/A   Clear
6:15 AM 71.6 °F - 68.0 °F 88% 30.11 in 7.0 mi ENE 4.6 mph - N/A   Clear
6:35 AM 71.6 °F - 68.0 °F 88% 30.11 in 6.0 mi ENE 4.6 mph - N/A   Clear
6:55 AM 71.6 °F - 68.0 °F 88% 30.12 in 5.0 mi ENE 4.6 mph - N/A   Clear
7:15 AM 71.6 °F - 68.0 °F 88% 30.12 in 5.0 mi ENE 4.6 mph - N/A   Clear
7:35 AM 71.6 °F - 68.0 °F 88% 30.13 in 5.0 mi ENE 3.5 mph - N/A   Clear
7:55 AM 73.4 °F - 69.8 °F 88% 30.13 in 8.0 mi ENE 4.6 mph - N/A   Clear
8:15 AM 75.2 °F - 69.8 °F 83% 30.14 in 10.0 mi ENE 6.9 mph - N/A   Clear
8:35 AM 77.0 °F - 71.6 °F 83% 30.15 in 10.0 mi ENE 4.6 mph - N/A   Clear
8:55 AM 78.8 °F - 71.6 °F 78% 30.15 in 10.0 mi East 9.2 mph - N/A   Clear
9:15 AM 80.6 °F 84.6 °F 71.6 °F 74% 30.15 in 10.0 mi East 6.9 mph - N/A   Clear
9:35 AM 80.6 °F 84.6 °F 71.6 °F 74% 30.15 in 10.0 mi East 6.9 mph - N/A   Clear
9:55 AM 82.4 °F 87.2 °F 71.6 °F 70% 30.16 in 10.0 mi ESE 9.2 mph - N/A   Clear
10:15 AM 84.2 °F 89.6 °F 71.6 °F 66% 30.16 in 10.0 mi East 10.4 mph - N/A   Clear
10:35 AM 84.2 °F 89.6 °F 71.6 °F 66% 30.16 in 10.0 mi ESE 4.6 mph - N/A   Scattered Clouds
11:15 AM 87.8 °F 92.6 °F 69.8 °F 55% 30.16 in 10.0 mi SE 4.6 mph - N/A   Scattered Clouds
11:35 AM 87.8 °F 91.4 °F 68.0 °F 52% 30.16 in 10.0 mi ESE 9.2 mph - N/A   Partly Cloudy
11:55 AM 87.8 °F 90.4 °F 66.2 °F 49% 30.16 in 10.0 mi NE 8.1 mph - N/A   Mostly Cloudy
12:15 PM 89.6 °F 92.2 °F 66.2 °F 46% 30.16 in 10.0 mi SE 5.8 mph - N/A   Mostly Cloudy
12:35 PM 89.6 °F 92.2 °F 66.2 °F 46% 30.15 in 10.0 mi ESE 6.9 mph - N/A   Mostly Cloudy
12:55 PM 89.6 °F 93.4 °F 68.0 °F 49% 30.14 in 10.0 mi SE 8.1 mph - N/A   Scattered Clouds
1:15 PM 89.6 °F 94.7 °F 69.8 °F 52% 30.13 in 10.0 mi South 5.8 mph - N/A   Scattered Clouds
1:35 PM 91.4 °F 96.8 °F 69.8 °F 49% 30.13 in 10.0 mi SSW 5.8 mph - N/A   Mostly Cloudy
1:55 PM 91.4 °F 98.4 °F 71.6 °F 52% 30.12 in 10.0 mi South 9.2 mph - N/A   Mostly Cloudy
2:15 PM 91.4 °F 98.4 °F 71.6 °F 52% 30.12 in 10.0 mi SW 3.5 mph - N/A   Mostly Cloudy
2:35 PM 87.8 °F 93.8 °F 71.6 °F 58% 30.11 in 10.0 mi WNW 9.2 mph - N/A   Mostly Cloudy
2:55 PM 87.8 °F 93.8 °F 71.6 °F 58% 30.10 in 10.0 mi West 8.1 mph - N/A   Partly Cloudy
3:35 PM 87.8 °F 93.8 °F 71.6 °F 58% 30.08 in 10.0 mi West 11.5 mph 18.4 mph N/A Thunderstorm Clear
3:55 PM 87.8 °F 93.8 °F 71.6 °F 58% 30.08 in 10.0 mi SW 10.4 mph - N/A Thunderstorm Partly Cloudy
4:15 PM 78.8 °F - 71.6 °F 78% 30.14 in 4.0 mi ESE 16.1 mph 29.9 mph 0.03 in Thunderstorm Thunderstorm
4:35 PM 71.6 °F - 68.0 °F 88% 30.15 in 3.0 mi ESE 13.8 mph 31.1 mph 0.27 in Thunderstorm Thunderstorm
4:55 PM 71.6 °F - 68.0 °F 88% 30.13 in 5.0 mi South 4.6 mph - 0.02 in Thunderstorm Unknown
5:15 PM 73.4 °F - 69.8 °F 88% 30.08 in 10.0 mi NNW 3.5 mph - 0.02 in   Mostly Cloudy
5:35 PM 73.4 °F - 69.8 °F 88% 30.07 in 10.0 mi WNW 3.5 mph - 0.02 in   Scattered Clouds
5:55 PM 75.2 °F - 69.8 °F 83% 30.08 in 10.0 mi SSW 3.5 mph - 0.02 in   Unknown
6:15 PM 78.8 °F - 71.6 °F 78% 30.09 in 10.0 mi East 3.5 mph - N/A   Unknown
6:35 PM 78.8 °F - 71.6 °F 78% 30.08 in 10.0 mi Calm Calm - N/A   Unknown
6:55 PM 78.8 °F - 69.8 °F 74% 30.07 in 10.0 mi Calm Calm - N/A   Unknown
7:15 PM 78.8 °F - 69.8 °F 74% 30.08 in 10.0 mi Calm Calm - N/A   Clear
7:35 PM 78.8 °F - 69.8 °F 74% 30.09 in 10.0 mi Calm Calm - N/A   Clear
7:55 PM 78.8 °F - 69.8 °F 74% 30.10 in 10.0 mi Calm Calm - N/A   Clear
8:15 PM 78.8 °F - 69.8 °F 74% 30.11 in 10.0 mi Calm Calm - N/A   Mostly Cloudy
8:35 PM 78.8 °F - 68.0 °F 69% 30.12 in 10.0 mi Calm Calm - N/A   Mostly Cloudy
8:55 PM 78.8 °F - 66.2 °F 65% 30.13 in 10.0 mi NE 3.5 mph - N/A   Scattered Clouds
9:15 PM 77.0 °F - 69.8 °F 78% 30.13 in 10.0 mi Calm Calm - N/A   Scattered Clouds
9:35 PM 77.0 °F - 71.6 °F 83% 30.13 in 10.0 mi ENE 8.1 mph - N/A   Clear
9:55 PM 75.2 °F - 69.8 °F 83% 30.14 in 10.0 mi NE 6.9 mph - N/A   Scattered Clouds
10:15 PM 75.2 °F - 69.8 °F 83% 30.15 in 10.0 mi NE 5.8 mph - N/A   Scattered Clouds
10:35 PM 75.2 °F - 68.0 °F 78% 30.15 in 10.0 mi NE 5.8 mph - N/A   Partly Cloudy
10:55 PM 75.2 °F - 68.0 °F 78% 30.15 in 10.0 mi NE 4.6 mph - N/A   Clear
11:15 PM 75.2 °F - 68.0 °F 78% 30.15 in 10.0 mi NNE 4.6 mph - N/A   Clear
11:35 PM 73.4 °F - 68.0 °F 83% 30.15 in 10.0 mi Calm Calm - N/A   Clear
11:55 PM 75.2 °F - 68.0 °F 78% 30.15 in 10.0 mi NNE 4.6 mph - N/A   Clear